sat.trackr.live / text

‹ back to catalog

STARLINK-36524

NORAD 67452 · 2026-008H

PAYLOAD ACTIVE UNKNOWN

§ Identity

Operator
Country
US
Launch date
2026-01-14
Launch site
AFETR
Launch vehicle
Mass (kg)
RCS (m²)

Purposes: comms

External: N2YO · Heavens-Above · Gunter

§ Orbital elements

Epoch: 2026-05-25T05:36:26.852832Z

Period
94.27 min
Inclination
42.9995°
Eccentricity
0.0000835
Mean motion
15.27591143 rev/d
Perigee alt
482.4 km
Apogee alt
483.6 km
Semi-major
6,861.2 km
B*
4.3620e-4
RAAN
133.3804°
Arg perigee
291.2685°
Mean anomaly
68.8078°
Rev number
2,127

§ Raw data

STARLINK-365241 67452U 26008H   26145.23364413  .00011764  00000+0  43620-3 0  99902 67452  42.9995 133.3804 0000835 291.2685  68.8078 15.27591143 21272

JSON: /api/v1/satellites/67452 · /tle

For live sub-satellite position, see the globe view (requires WebGL).

§ Visibility from observer

Set your observer location to see the next 7 days of passes ≥ 10°. The values pass through the URL so the page stays shareable.

No JS? Fill the form by hand. The geolocation button needs JavaScript.